+ View the NASA Portal
+ Center for Near-Earth Object Studies
IMPORTANT:
The SSD Announcement email list is now available. Major changes are coming in the near future, including possible hostname and/or URL changes. To be notified of such changes, subscribe to this email list.
Please visit
this page
for more details.
Don't show this message again
JPL Small-Body Database Browser
Search:
[
help
]
437346 (2013 TM39)
Classification:
Main-belt Asteroid
SPK-ID:
2437346
[
Ephemeris
|
Orbit Diagram
|
Orbital Elements
|
Mission Design
|
Physical Parameters
|
Discovery Circumstances
|
Close-Approach Data
]
[ show orbit diagram ]
Orbital Elements at Epoch 2458600.5 (2019-Apr-27.0) TDB
Reference:
JPL 14
(heliocentric ecliptic J2000)
Element
Value
Uncertainty (1-sigma)
Units
e
.1172514821521307
5.7331e-08
a
3.113050944009298
7.2075e-08
au
q
2.748041106809118
2.0248e-07
au
i
5.569920160595449
7.6712e-06
deg
node
28.35253253123749
8.2703e-05
deg
peri
42.27545400354659
9.3022e-05
deg
M
328.7315007792776
4.3827e-05
deg
t
p
2458774.753818978387
(2019-Oct-18.25381898)
0.00024685
TDB
period
2006.216364571971
5.49
6.9674e-05
1.908e-07
d
yr
n
.1794422607437989
6.2318e-09
deg/d
Q
3.478060781209477
8.0526e-08
au
Orbit Determination Parameters
# obs. used (total)
103
data-arc span
5820 days (15.93 yr)
first obs. used
2002-10-29
last obs. used
2018-10-05
planetary ephem.
DE431
SB-pert. ephem.
SB431-N16
condition code
0
norm. resid. RMS
.59251
source
ORB
producer
Otto Matic
solution date
2019-Jul-14 15:44:43
Additional Information
Earth MOID
= 1.7652 au
Jupiter MOID
= 1.8265 au
T_jup
= 3.201
[ show covariance matrix ]
[
Ephemeris
|
Orbit Diagram
|
Orbital Elements
|
Mission Design
|
Physical Parameters
|
Discovery Circumstances
|
Close-Approach Data
]
Physical Parameter Table
Parameter
Symbol
Value
Units
Sigma
Reference
Notes
absolute magnitude
H
16.5
n/a
MPO456079
437346 (2013 TM39)
Discovered 2013-Oct-02 by Mt. Lemmon Survey at Mount Lemmon
Reference:
Last Updated:
2015-06-04
[ show close-approach data ]
Alternate Designations
2013 TM39
= 2013 UZ11
[
Ephemeris
|
Orbit Diagram
|
Orbital Elements
|
Mission Design
|
Physical Parameters
|
Discovery Circumstances
|
Close-Approach Data
]
2019-Dec-09 11:20 UT
(server date/time)
Site Manager:
Ryan S. Park
Webmaster
:
Alan B. Chamberlin